CW6344 Weather Reports


time (UTC)temp
F
wind
direction
speed
knots
gust
knots
rain 1hr
in
rain 24hr
in
rain mn
in
humidity
%
barometer
mb
20260903220437 88 223 0.0 0.0 0.00 0.00 0.00 76 1013.9
20260903215437 88 223 0.0 0.0 0.00 0.00 0.00 75 1013.9
20260903214437 88 222 0.0 0.0 0.00 0.00 0.00 74 1014.0
20260903213437 88 241 0.0 0.9 0.00 0.00 0.00 74 1013.9
20260903212507 89 294 0.9 2.6 0.00 0.00 0.00 73 1014.0
20260903210437 89 225 0.9 1.7 0.00 0.00 0.00 71 1014.0
20260903205437 89 285 1.7 1.7 0.00 0.00 0.00 74 1014.1
20260903204438 89 228 0.0 0.9 0.00 0.00 0.00 69 1014.2
20260903203437 88 284 0.0 0.9 0.00 0.00 0.00 74 1014.4
20260903202437 89 279 0.9 0.9 0.00 0.00 0.00 77 1014.6
20260903201437 88 279 0.0 0.9 0.00 0.00 0.00 75 1014.7
20260903200507 88 288 0.0 1.7 0.00 0.00 0.00 77 1014.7
20260903195437 87 286 1.7 2.6 0.00 0.00 0.00 75 1014.7
20260903194437 87 260 0.0 0.0 0.00 0.00 0.00 78 1015.0
20260903193437 89 228 0.0 0.0 0.00 0.00 0.00 75 1014.9
20260903192437 88 263 0.0 2.6 0.00 0.00 0.00 75 1014.8
20260903191437 88 292 0.9 0.9 0.00 0.00 0.00 76 1014.9
20260903190437 88 233 0.0 0.9 0.00 0.00 0.00 76 1014.9
20260903185437 89 239 1.7 1.7 0.00 0.02 0.00 75 1015.0
20260903184437 88 234 0.0 2.6 0.00 0.02 0.00 77 1015.2
20260903182437 88 302 0.9 2.6 0.00 0.02 0.00 77 1015.4
20260903181437 88 279 0.0 2.6 0.00 0.02 0.00 78 1015.7
20260903180437 88 227 0.0 0.9 0.00 0.02 0.00 78 1015.9
20260903175437 87 295 0.9 1.7 0.00 0.02 0.00 78 1016.1
20260903174437 88 276 0.0 1.7 0.00 0.02 0.00 77 1016.1
20260903173437 87 190 0.9 2.6 0.00 0.02 0.00 79 1016.2
20260903172507 86 275 0.9 1.7 0.00 0.02 0.00 80 1016.3
20260903171437 86 263 0.9 0.9 0.00 0.02 0.00 79 1016.4
20260903170437 86 217 0.0 2.6 0.00 0.02 0.00 78 1016.4
20260903165437 86 213 0.0 3.5 0.00 0.02 0.00 79 1016.3
20260903164507 86 217 0.0 2.6 0.00 0.02 0.00 80 1016.7
20260903163437 86 284 0.0 0.9 0.00 0.02 0.00 81 1016.7
20260903162437 86 286 1.7 1.7 0.00 0.02 0.00 81 1016.8
20260903160508 85 30 0.0 0.0 0.00 0.02 0.00 82 1017.1
20260903155437 85 227 0.0 2.6 0.00 0.02 0.00 83 1017.2
20260903154437 84 246 0.0 1.7 0.00 0.02 0.00 83 1017.1
20260903152508 83 17 0.0 0.9 0.00 0.02 0.00 84 1017.0
20260903150508 83 17 0.9 1.7 0.00 0.02 0.00 84 1016.6
20260903145438 83 140 0.9 2.6 0.00 0.02 0.00 85 1016.4
20260903144437 82 109 0.0 0.9 0.00 0.02 0.00 86 1016.5
20260903143437 82 186 0.0 0.9 0.00 0.02 0.00 87 1016.6
20260903142438 81 167 0.0 0.0 0.00 0.02 0.00 87 1016.7
20260903141438 81 167 0.0 1.7 0.00 0.02 0.00 87 1017.1
20260903140437 81 148 0.0 0.0 0.00 0.02 0.00 89 1017.2
20260903135438 80 182 0.0 2.6 0.00 0.02 0.00 89 1017.1
20260903134438 80 243 0.0 0.0 0.00 0.02 0.00 90 1017.2
20260903133437 79 243 0.0 0.0 0.00 0.02 0.00 91 1017.3
20260903132438 80 243 0.0 0.0 0.00 0.02 0.00 91 1017.5
20260903130507 79 243 0.0 0.0 0.00 0.02 0.00 92 1017.7
20260903125437 79 243 0.0 0.0 0.00 0.02 0.00 92 1017.8
20260903124437 78 243 0.0 0.9 0.00 0.02 0.00 93 1017.8
20260903123438 77 243 0.0 0.0 0.00 0.02 0.00 93 1017.8
20260903122438 77 243 0.0 0.0 0.00 0.02 0.00 93 1017.8
20260903121438 77 243 0.0 0.0 0.00 0.02 0.00 94 1017.3
20260903120508 76 243 0.0 0.0 0.00 0.02 0.00 93 1017.4
20260903115438 76 243 0.0 0.0 0.00 0.02 0.00 94 1017.5
20260903114438 75 243 0.0 0.0 0.00 0.02 0.00 93 1017.4
20260903112438 75 243 0.0 0.0 0.00 0.02 0.00 94 1017.1
20260903111438 74 267 0.0 0.0 0.00 0.02 0.00 93 1016.9
20260903110508 74 302 0.0 0.0 0.00 0.02 0.00 93 1016.9
20260903105438 74 302 0.0 0.0 0.00 0.02 0.00 93 1017.0
20260903104438 74 302 0.0 0.0 0.00 0.02 0.00 93 1017.0
20260903102438 73 113 0.0 0.0 0.00 0.02 0.00 93 1016.8
20260903101438 73 113 0.0 0.0 0.00 0.02 0.00 93 1016.7
20260903100438 73 113 0.0 0.0 0.00 0.02 0.00 93 1016.5
20260903095438 73 113 0.0 0.0 0.00 0.02 0.00 93 1016.5
20260903094438 73 113 0.0 0.0 0.00 0.02 0.00 93 1016.6
20260903093438 73 113 0.0 0.0 0.00 0.02 0.00 93 1016.5
20260903092508 73 113 0.0 0.0 0.00 0.02 0.00 93 1016.3
20260903090438 73 113 0.0 0.0 0.00 0.02 0.00 93 1016.3
20260903085438 73 113 0.0 0.0 0.00 0.02 0.00 93 1016.4
20260903084438 73 113 0.0 0.0 0.00 0.02 0.00 93 1016.5
20260903083438 73 113 0.0 0.0 0.00 0.02 0.00 93 1016.6
20260903082438 73 113 0.0 0.0 0.00 0.02 0.00 93 1016.5
20260903081438 73 113 0.0 0.0 0.00 0.02 0.00 93 1016.5
20260903080438 73 113 0.0 0.0 0.00 0.02 0.00 93 1016.5
20260903075438 73 113 0.0 0.0 0.00 0.02 0.00 93 1016.4
20260903074438 73 113 0.0 0.0 0.00 0.02 0.00 93 1016.5
20260903073438 73 113 0.0 0.0 0.00 0.02 0.00 93 1016.4
20260903072438 73 113 0.0 0.0 0.00 0.02 0.00 93 1016.4
20260903071438 73 113 0.0 0.0 0.00 0.02 0.00 92 1016.4
20260903070508 74 113 0.0 0.0 0.00 0.02 0.00 93 1016.4
20260903065438 74 113 0.0 0.0 0.00 0.02 0.00 93 1016.4
20260903064508 74 113 0.0 0.0 0.00 0.02 0.00 93 1016.4
20260903063438 74 113 0.0 0.0 0.00 0.02 0.00 92 1016.6
20260903062508 74 113 0.0 0.0 0.00 0.02 0.00 92 1016.4
20260903061438 74 113 0.0 0.0 0.00 0.02 0.00 92 1016.6
20260903060438 74 113 0.0 0.0 0.00 0.02 0.00 92 1016.8
20260903055438 74 113 0.0 0.0 0.00 0.02 0.00 92 1016.9
20260903054438 74 113 0.0 0.0 0.00 0.02 0.00 92 1017.1
20260903053438 74 113 0.0 0.0 0.00 0.02 0.00 92 1017.1
20260903052438 74 113 0.0 0.0 0.00 0.02 0.00 92 1017.0
20260903051438 74 113 0.0 0.0 0.00 0.02 0.00 92 1017.2
20260903050438 74 113 0.0 0.0 0.00 0.02 0.00 92 1017.1
20260903045438 74 113 0.0 0.0 0.00 0.02 0.00 92 1017.1
20260903044508 74 113 0.0 0.0 0.00 0.02 0.00 92 1017.0
20260903043438 74 113 0.0 0.0 0.00 0.02 0.00 92 1016.9
20260903042438 74 113 0.0 0.0 0.00 0.02 0.00 93 1017.0
20260903041438 74 113 0.0 0.0 0.00 0.02 0.00 93 1017.0
20260903040438 74 113 0.0 0.0 0.00 0.02 0.02 93 1017.1
20260903035438 74 113 0.0 0.0 0.00 0.02 0.02 93 1017.2
20260903034438 74 113 0.0 0.0 0.00 0.02 0.02 93 1017.1
20260903033438 73 113 0.0 0.0 0.00 0.02 0.02 93 1017.1
20260903032508 73 113 0.0 0.0 0.00 0.02 0.02 93 1017.1
20260903031438 73 113 0.0 0.0 0.00 0.02 0.02 92 1017.1
20260903030438 73 113 0.0 0.0 0.00 0.02 0.02 93 1016.8
20260903025438 73 113 0.0 0.0 0.00 0.02 0.02 92 1016.8
20260903024438 73 113 0.0 0.0 0.00 0.02 0.02 92 1016.9
20260903023439 73 113 0.0 0.0 0.00 0.02 0.02 92 1016.9
20260903022438 73 113 0.0 0.0 0.00 0.02 0.02 92 1016.8
20260903021438 73 113 0.0 0.0 0.00 0.02 0.02 92 1017.0
20260903020438 73 113 0.0 0.0 0.00 0.02 0.02 92 1017.4
20260903014538 73 113 0.0 0.0 0.00 0.02 0.02 92 1017.5
20260903013438 73 113 0.0 0.0 0.00 0.02 0.02 92 1017.4
20260903012438 73 113 0.0 0.0 0.00 0.02 0.02 92 1017.3
20260903010508 73 113 0.0 0.0 0.00 0.02 0.02 92 1017.2
20260903005438 73 113 0.0 0.0 0.00 0.02 0.02 91 1017.3
20260903004438 73 113 0.0 0.0 0.00 0.02 0.02 91 1017.2
20260903002438 73 113 0.0 0.0 0.00 0.02 0.02 91 1016.9
20260903001438 73 113 0.0 0.0 0.00 0.02 0.02 91 1016.6
20260903000508 73 113 0.0 0.0 0.00 0.02 0.02 91 1016.6
20260902235438 74 113 0.0 0.0 0.00 0.02 0.02 91 1016.8
20260902234508 74 113 0.0 0.0 0.00 0.02 0.02 91 1016.8
20260902232438 74 113 0.0 0.0 0.00 0.02 0.02 90 1017.2
20260902230438 74 113 0.0 0.0 0.00 0.02 0.02 90 1017.2
20260902225438 75 111 0.0 0.0 0.00 0.02 0.02 89 1017.1
20260902224438 75 105 0.0 0.0 0.00 0.02 0.02 89 1016.9
20260902223438 75 99 0.0 0.0 0.00 0.02 0.02 89 1016.9
20260902222439 75 123 0.0 0.0 0.00 0.02 0.02 89 1016.9
20260902221438 75 76 0.0 0.0 0.00 0.02 0.02 88 1016.9